Weather History for Nashua, NH

Change the Weather History Date:

Sunday, September 1, 2013

  Actual Average Record
Temperature  
Mean Temperature 77 °F -  
Max Temperature 84 °F 78 °F 95 °F (2010)
Min Temperature 70 °F 51 °F 36 °F (1971)
Cooling Degree Days 12    
Growing Degree Days 27 (Base 50)    
Moisture  
Dew Point 71 °F    
Average Humidity 85    
Maximum Humidity 100    
Minimum Humidity 63    
Precipitation  
Precipitation 0.01 in - - ()
Sea Level Pressure  
Sea Level Pressure 30.42 in    
Wind  
Wind Speed 1 mph (SE)    
Max Wind Speed 7 mph    
Max Gust Speed -    
Visibility 9 miles    
Events Rain , Thunderstorm    
Averages and records for this station are not official NWS values.
T = Trace of Precipitation, MM = Missing Value Source: NWS Daily Summary

Daily Weather History Graph

Daily Weather History Graph

Search for Another Location

Airport:

Trip Planner

Search our weather history database for the weather conditions in past years. The results will help you decide how hot, cold, wet, or windy it might be!

Date:

Astronomy

Sep. 01, 2013 Rise Set
Actual Time 6:10 AM EDT 7:20 PM EDT
Civil Twilight 5:41 AM EDT 7:49 PM EDT
Nautical Twilight 5:07 AM EDT 8:23 PM EDT
Astronomical Twilight 4:30 AM EDT 9:00 PM EDT
Moon 2:26 AM EDT (9/1) 4:58 PM EDT (9/1)
Length of Visible Light 14h 07m
Length of Day
13h 09m
Waning Crescent, 14% of the Moon is Illuminated
Sep 1
Waning Crescent
Sep 5
New
Sep 12
First Quarter
Sep 19
Full
Sep 26
Last Quarter

Hourly Weather History & Observations

Time (EDT) Temp. Heat Index Dew Point Humidity Pressure Visibility Wind Dir Wind Speed Gust Speed Precip Events Conditions
12:51 AM 72.9 °F - 72.0 °F 97% 30.52 in 6.0 mi Calm Calm - N/A   Partly Cloudy
1:51 AM 72.9 °F - 72.0 °F 97% 30.51 in 7.0 mi Calm Calm - N/A   Clear
2:51 AM 72.9 °F - 70.9 °F 93% 30.51 in 7.0 mi Calm Calm - N/A   Clear
3:51 AM 72.9 °F - 70.9 °F 93% 30.52 in 8.0 mi Calm Calm - N/A   Clear
4:19 AM 73.4 °F - 71.6 °F 94% 29.82 in 7.0 mi Calm Calm - N/A Thunderstorm Thunderstorm
4:51 AM 72.9 °F - 68.9 °F 87% 30.53 in 10.0 mi Variable 4.6 mph - 0.00 in Rain , Thunderstorm Light Thunderstorms and Rain
4:58 AM 73.4 °F - 68.0 °F 83% 29.81 in 10.0 mi Calm Calm - 0.00 in Rain Light Rain
5:51 AM 70.9 °F - 68.0 °F 91% 30.53 in 10.0 mi Calm Calm - 0.01 in   Clear
6:51 AM 70.9 °F - 68.0 °F 91% 30.57 in 10.0 mi Calm Calm - N/A   Clear
7:51 AM 72.0 °F - 68.0 °F 87% 30.58 in 10.0 mi Calm Calm - N/A   Scattered Clouds
8:51 AM 72.9 °F - 68.0 °F 85% 30.58 in 10.0 mi Calm Calm - N/A   Clear
9:51 AM 75.9 °F - 68.9 °F 79% 30.59 in 10.0 mi Variable 4.6 mph - N/A   Scattered Clouds
10:51 AM 77.9 °F - 68.9 °F 74% 30.60 in 10.0 mi Calm Calm - N/A   Partly Cloudy
11:51 AM 81.0 °F 84.1 °F 68.9 °F 67% 30.58 in 10.0 mi Variable 3.5 mph - N/A   Partly Cloudy
12:51 PM 77.9 °F - 70.0 °F 76% 30.58 in 10.0 mi SSE 6.9 mph - 0.00 in   Mostly Cloudy
1:51 PM 81.9 °F 85.6 °F 70.0 °F 67% 30.57 in 10.0 mi Variable 5.8 mph - 0.00 in   Mostly Cloudy
2:51 PM 82.9 °F 87.0 °F 70.0 °F 65% 30.56 in 10.0 mi Variable 4.6 mph - 0.00 in   Mostly Cloudy
3:51 PM 84.9 °F 90.1 °F 70.9 °F 63% 30.54 in 10.0 mi Variable 4.6 mph - N/A   Mostly Cloudy
4:51 PM 82.9 °F 87.0 °F 70.0 °F 65% 30.55 in 10.0 mi Variable 3.5 mph - N/A   Mostly Cloudy
5:51 PM 79.9 °F - 70.9 °F 74% 30.56 in 10.0 mi Calm Calm - N/A   Scattered Clouds
6:51 PM 79.0 °F - 70.9 °F 76% 30.56 in 10.0 mi Variable 3.5 mph - N/A   Mostly Cloudy
7:51 PM 77.9 °F - 72.0 °F 82% 30.57 in 10.0 mi Calm Calm - N/A   Mostly Cloudy
8:51 PM 77.0 °F - 72.9 °F 87% 30.58 in 10.0 mi Calm Calm - N/A   Mostly Cloudy
9:34 PM 75.2 °F - 73.4 °F 94% 29.87 in 8.0 mi SE 4.6 mph - 0.00 in Rain Light Rain
9:51 PM 74.8 °F - 72.9 °F 94% 30.58 in 8.0 mi Variable 4.6 mph - 0.00 in   Scattered Clouds
10:51 PM 73.9 °F - 72.9 °F 96% 30.60 in 7.0 mi Calm Calm - N/A   Partly Cloudy
11:00 PM 73.4 °F - 73.4 °F 100% 29.88 in 8.0 mi Calm Calm - N/A   Scattered Clouds
11:23 PM 73.4 °F - 73.4 °F 100% 29.88 in 7.0 mi SE 3.5 mph - N/A   Mostly Cloudy
11:34 PM 73.4 °F - 73.4 °F 100% 29.88 in 8.0 mi SSE 3.5 mph - N/A   Scattered Clouds
11:51 PM 73.9 °F - 72.9 °F 96% 30.58 in 8.0 mi SE 3.5 mph - N/A   Mostly Cloudy